Regional Weather Roundup
Issued by NWS

Home | Current Version | Previous Version | Graphics & Text | Print | Product List | Glossary On
Versions: 1 2 3 4 5 6 7 8 9 10 11 12 13 14 15 16 17 18 19 20 21 22 23 24 25 26 27 28 29 30 31 32 33 34 35 36 37 38 39 40 41 42 43 44 45 46 47 48 49 50
000
ASUS44 KMEG 201410
RWRTN
TENNESSEE HOURLY STATE WEATHER ROUNDUP
NATIONAL WEATHER SERVICE MEMPHIS TN
800 AM CST SAT JAN 20 2018

TNZ002-004-019-021-049-052-054-088>092-201500-
WEST TENNESSEE

CITY           SKY/WX    TMP DP  RH WIND       PRES   REMARKS
MEMPHIS INTL   MOCLDY    45  25  45 S7        30.18R
NWS MEMPHIS      N/A     43 N/A N/A MISG        N/A
JACKSON        MOCLDY    44  26  49 S8        30.19S
DYERSBURG      CLOUDY    44  24  45 S6        30.18R
SOMERVILLE     PTCLDY    45  25  45 VRB3      30.17S
COVINGTON      CLOUDY    43  25  49 S7        30.18S
UNION CITY     CLOUDY    41  25  52 S7        30.17R
BOLIVAR        CLOUDY    43  27  52 SE6       30.18S
PARIS          CLOUDY    43  27  52 SW7       30.17R
HUNTINGDON     CLOUDY    39  27  60 CALM      30.18R
LEXINGTON      MOCLDY    45  27  49 S9        30.20S
SELMER         CLOUDY    45  25  45 VRB6      30.20S
SAVANNAH       CLOUDY    46  25  42 S5        30.22R
$$

TNZ008-025-027-028-033-062-065-066-201500-
NORTH MIDDLE TENNESSEE

CITY           SKY/WX    TMP DP  RH WIND       PRES   REMARKS
NASHVILLE      PTSUNNY   45  26  47 S6        30.22R
PORTLAND       CLOUDY    41  30  65 S9        30.20R
CLARKSVILLE    CLOUDY    42  22  44 S5        30.19R
SMYRNA         FAIR      43  28  55 S5        30.24R
COOKEVILLE     CLOUDY    46  30  53 CALM      30.24R
GALLATIN       PTSUNNY   45  28  53 S3        30.25R
CROSSVILLE     CLOUDY    38  20  48 S3        30.24R
$$

TNZ061-075-076-078-094-096-097-201500-
SOUTH MIDDLE TENNESSEE

CITY           SKY/WX    TMP DP  RH WIND       PRES   REMARKS
FAYETTEVILLE   CLOUDY    45  27  49 S5        30.24S
TULLAHOMA      CLOUDY    45  27  49 CALM      30.24R
WINCHESTER     CLOUDY    43  27  52 SE3       30.26R
MCMINNVILLE    CLOUDY    45  28  53 W5        30.24R
COLUMBIA       SUNNY     45  25  45 SW9       30.21R
SHELBYVILLE    PTSUNNY   43  27  52 S6        30.24S
$$

TNZ017-018-042-046-047-201500-
NORTHEAST TENNESSEE

CITY           SKY/WX    TMP DP  RH WIND       PRES   REMARKS
TRI CITIES     CLOUDY    30  24  78 CALM      30.28R
ELIZABETHTON   CLOUDY    34  27  75 CALM      30.27R
$$

TNZ012-013-036-069-073-074-201500-
CENTRAL EAST TENNESSEE

CITY           SKY/WX    TMP DP  RH WIND       PRES   REMARKS
KNOXVILLE      CLOUDY    37  23  56 NW5       30.26S WCI  33
OAK RIDGE      CLOUDY    37  25  61 CALM      30.29R
DOWNTOWN KNOXV CLOUDY    36  27  69 CALM      30.28S
GATLINBURG     CLOUDY    34  28  80 E5        30.27S WCI  30
MORRISTOWN     CLOUDY    34  23  64 CALM      30.26R
JACKSBORO      CLOUDY    34  25  69 CALM      30.30R
$$

TNZ083-085-099-201500-
SOUTHEAST TENNESSEE

CITY           SKY/WX    TMP DP  RH WIND       PRES   REMARKS
CHATTANOOGA    CLOUDY    38  21  50 CALM      30.28R
DAYTON         CLOUDY    36  30  80 CALM      30.27R
$$

SKY/WX REPORTED AS FAIR MEANS FEW OR NO CLOUDS BELOW
12 THOUSAND FEET.




USA.gov is the U.S. government's official web portal to all federal, state and local government web resources and services.